Flag for India Weather past 2 weeks in Jodhpur, Rajasthan, India

Now
91 °F

Clear.


Feels Like: 88 °F
Forecast: 74 / 96 °F
Wind: 6 mph from Southwest

Location: Jaipur / Sanganer

Current Time: Oct 21, 2014 at 1:38:19 PM

Latest Report: Oct 21, 2014 at 1:00 PM


Visibility: 2 mi

Pressure: 30.04 "Hg

Humidity: 24%

Dew point: 50 °F

Location of JodhpurLocation

Historic Weather in Jodhpur — Graph

°F

Jodhpur temperature yesterday

Maximum temperature yesterday: 91 °F (at 1:00 PM)
Minimum temperature yesterday: 66 °F (at 4:00 AM)
Average temperature yesterday: 77 °F

Past Weeks' High & Low Weather Summary

 TemperatureHumidityPressure
High97 °F (Oct 6, 2:00 PM)94% (Oct 16, 5:00 AM)30.09 "Hg (Oct 16, 5:00 AM)
Low64 °F (Oct 18, 6:00 AM)13% (Oct 11, 4:00 PM)29.65 "Hg (Oct 11, 3:00 PM)
Average81 °F48%29.92 "Hg
* Reported Oct 6 12:00 Noon — Oct 21 12:00 Noon, Jodhpur, Weather by CustomWeather, © 2014

Note: Actual official high and low records may vary slightly from our data, if they occured in-between our weather recording intervals... More about our weather records

Advertising

Jodhpur weather history for previous 24 hours

 ConditionsComfort  
Time TempWeatherWind HumidityBarometerVisibility
12:00 PM
Oct 21
88 °FClear.6 mph31%30.07 "Hg1 mi
11:00 AM86 °FClear.6 mph31%30.09 "Hg1 mi
10:30 AM84 °FClear.6 mph35%30.09 "Hg1 mi
10:00 AM84 °FClear.5 mph35%30.09 "Hg1 mi
9:00 AM82 °FClear.6 mph35%30.07 "Hg1 mi
8:00 AM75 °FClear.No wind50%30.07 "Hg1 mi
7:00 AM70 °FClear.No wind53%29.86 "Hg1 mi
6:00 AM70 °FClear.No wind50%30.01 "Hg1 mi
5:00 AM70 °FClear.No wind50%30.01 "Hg1 mi
3:00 AM70 °FClear.No wind60%30.01 "Hg1 mi
2:00 AM72 °FClear.No wind50%30.01 "Hg1 mi
1:00 AM73 °FClear.No wind50%30.01 "Hg1 mi
12:00 AM75 °FClear.2 mph41%30.01 "Hg1 mi
11:00 PM
Oct 20
75 °FClear.2 mph41%30.04 "Hg1 mi
10:00 PM75 °FClear.No wind47%30.04 "Hg1 mi
9:00 PM77 °FClear.No wind44%30.01 "Hg1 mi
8:00 PM77 °FClear.No wind42%30.01 "Hg1 mi
6:00 PM88 °FClear.1 mph24%29.95 "Hg1 mi
5:00 PM90 °FClear.5 mph21%29.95 "Hg1 mi
2:00 PM91 °FClear.6 mph20%29.95 "Hg1 mi
1:00 PM91 °FClear.5 mph18%29.98 "Hg1 mi
Weather by CustomWeather, © 2014

See weather overviewHow to use our weather pages